Location: ????????
(48.4751°N, 37.6926°E)
Time: 20:13:52
(UTC+00:00)

ISS - Pass Details

Date: 20 January 2021
Orbit: 417 x 422 km, 51.6° (Epoch: 02 March)

Event Time Altitude Azimuth Distance (km) Brightness Sun altitude
Rises 16:06:40 0° 225° (SW) 2,362 0.9 -19.1°
Reaches altitude 10° 16:08:49 10° 218° (SW) 1,502 -0.3 -19.4°
Enters shadow 16:11:36 38° 167° (SSE) 664 -2.9 -19.9°
